Weather History for Henderson, KY

Change the Weather History Date:

Wednesday, March 6, 2013

  Actual Average Record
Temperature  
Mean Temperature 32 °F -  
Max Temperature 35 °F 53 °F 77 °F (1956)
Min Temperature 30 °F 33 °F -4 °F (1960)
Degree Days  
Heating Degree Days 32    
Moisture  
Dew Point 19 °F    
Average Humidity 57    
Maximum Humidity 60    
Minimum Humidity 52    
Precipitation  
Precipitation 0.00 in - - ()
Sea Level Pressure  
Sea Level Pressure 30.23 in    
Wind  
Wind Speed 16 mph (NW)    
Max Wind Speed 25 mph    
Max Gust Speed 36 mph    
Visibility 10 miles    
Events      
Averages and records for this station are not official NWS values.
T = Trace of Precipitation, MM = Missing Value Source: NWS Daily Summary

Daily Weather History Graph

Daily Weather History Graph

Search for Another Location

Airport:

Trip Planner

Search our weather history database for the weather conditions in past years. The results will help you decide how hot, cold, wet, or windy it might be!

Date:

Astronomy

Mar. 06, 2013 Rise Set
Actual Time 6:14 AM CST 5:49 PM CST
Civil Twilight 5:48 AM CST 6:15 PM CST
Nautical Twilight 5:18 AM CST 6:46 PM CST
Astronomical Twilight 4:47 AM CST 7:16 PM CST
Moon 2:19 AM CST (3/6) 12:35 PM CST (3/6)
Length of Visible Light 12h 27m
Length of Day
11h 34m
Waning Crescent, 29% of the Moon is Illuminated
Mar 6
Waning Crescent
Mar 11
New
Mar 19
First Quarter
Mar 27
Full
Apr 2
Last Quarter

Hourly Weather History & Observations

Time (CST) Temp. Windchill Dew Point Humidity Pressure Visibility Wind Dir Wind Speed Gust Speed Precip Events Conditions
12:15 AM 33.8 °F 22.2 °F 19.4 °F 56% 29.97 in 10.0 mi WNW 20.7 mph 31.1 mph N/A   Overcast
12:35 AM 33.8 °F 21.6 °F 19.4 °F 56% 29.98 in 10.0 mi WNW 23.0 mph 32.2 mph N/A   Overcast
12:55 AM 32.0 °F 19.5 °F 19.4 °F 60% 29.99 in 10.0 mi WNW 21.9 mph 28.8 mph N/A   Overcast
1:15 AM 32.0 °F 18.9 °F 19.4 °F 60% 30.00 in 10.0 mi WNW 24.2 mph 35.7 mph N/A   Overcast
1:55 AM 33.8 °F 21.9 °F 19.4 °F 56% 30.00 in 10.0 mi WNW 21.9 mph 28.8 mph N/A   Overcast
2:15 AM 33.8 °F 22.8 °F 19.4 °F 56% 30.01 in 10.0 mi NW 18.4 mph 27.6 mph N/A   Overcast
2:35 AM 33.8 °F 21.0 °F 19.4 °F 56% 30.01 in 10.0 mi NW 25.3 mph 32.2 mph N/A   Overcast
2:55 AM 33.8 °F 22.8 °F 19.4 °F 56% 30.02 in 10.0 mi NW 18.4 mph 31.1 mph N/A   Overcast
3:15 AM 32.0 °F 19.5 °F 19.4 °F 60% 30.02 in 10.0 mi NW 21.9 mph 29.9 mph N/A   Overcast
3:35 AM 32.0 °F 19.8 °F 19.4 °F 60% 30.04 in 10.0 mi WNW 20.7 mph 27.6 mph N/A   Overcast
3:55 AM 32.0 °F 21.2 °F 19.4 °F 60% 30.05 in 10.0 mi NW 16.1 mph 23.0 mph N/A   Overcast
4:15 AM 32.0 °F 21.2 °F 19.4 °F 60% 30.06 in 10.0 mi NW 16.1 mph 26.5 mph N/A   Overcast
4:35 AM 32.0 °F 19.8 °F 19.4 °F 60% 30.07 in 10.0 mi NW 20.7 mph 27.6 mph N/A   Overcast
4:55 AM 32.0 °F 21.6 °F 19.4 °F 60% 30.09 in 10.0 mi NW 15.0 mph 25.3 mph N/A   Overcast
5:15 AM 32.0 °F 20.1 °F 19.4 °F 60% 30.10 in 10.0 mi NW 19.6 mph 26.5 mph N/A   Overcast
5:35 AM 32.0 °F 21.2 °F 19.4 °F 60% 30.11 in 10.0 mi NW 16.1 mph 23.0 mph N/A   Overcast
6:15 AM 32.0 °F 21.2 °F 19.4 °F 60% 30.14 in 10.0 mi NW 16.1 mph 24.2 mph N/A   Overcast
6:35 AM 32.0 °F 20.1 °F 19.4 °F 60% 30.16 in 10.0 mi NW 19.6 mph 26.5 mph N/A   Overcast
6:55 AM 32.0 °F 20.5 °F 19.4 °F 60% 30.17 in 10.0 mi NW 18.4 mph 25.3 mph N/A   Overcast
7:15 AM 32.0 °F 20.8 °F 19.4 °F 60% 30.18 in 10.0 mi NW 17.3 mph 24.2 mph N/A   Overcast
7:35 AM 32.0 °F 21.2 °F 19.4 °F 60% 30.19 in 10.0 mi NW 16.1 mph 20.7 mph N/A   Overcast
7:55 AM 32.0 °F 22.5 °F 19.4 °F 60% 30.20 in 10.0 mi NW 12.7 mph 23.0 mph N/A   Overcast
8:15 AM 32.0 °F 22.5 °F 19.4 °F 60% 30.21 in 10.0 mi NW 12.7 mph - N/A   Overcast
8:35 AM 32.0 °F 22.1 °F 19.4 °F 60% 30.23 in 10.0 mi NW 13.8 mph 20.7 mph N/A   Overcast
8:55 AM 33.8 °F 24.8 °F 19.4 °F 56% 30.24 in 10.0 mi NW 12.7 mph 19.6 mph N/A   Overcast
9:15 AM 33.8 °F 24.3 °F 19.4 °F 56% 30.24 in 10.0 mi NW 13.8 mph 27.6 mph N/A   Overcast
9:35 AM 33.8 °F 22.5 °F 19.4 °F 56% 30.25 in 10.0 mi NW 19.6 mph 24.2 mph N/A   Overcast
9:55 AM 33.8 °F 23.2 °F 19.4 °F 56% 30.26 in 10.0 mi NW 17.3 mph 23.0 mph N/A   Overcast
10:15 AM 33.8 °F 23.9 °F 19.4 °F 56% 30.27 in 10.0 mi NW 15.0 mph 18.4 mph N/A   Overcast
10:35 AM 33.8 °F 23.2 °F 19.4 °F 56% 30.28 in 10.0 mi NW 17.3 mph 20.7 mph N/A   Overcast
10:55 AM 33.8 °F 24.8 °F 19.4 °F 56% 30.28 in 10.0 mi NW 12.7 mph 18.4 mph N/A   Overcast
11:15 AM 33.8 °F 24.3 °F 19.4 °F 56% 30.28 in 10.0 mi NW 13.8 mph 20.7 mph N/A   Overcast
11:35 AM 33.8 °F 23.5 °F 19.4 °F 56% 30.29 in 10.0 mi NW 16.1 mph 23.0 mph N/A   Overcast
11:55 AM 33.8 °F 23.9 °F 19.4 °F 56% 30.30 in 10.0 mi NW 15.0 mph 19.6 mph N/A   Overcast
12:15 PM 33.8 °F 24.3 °F 19.4 °F 56% 30.30 in 10.0 mi NW 13.8 mph 19.6 mph N/A   Overcast
12:35 PM 33.8 °F 24.3 °F 19.4 °F 56% 30.29 in 10.0 mi NNW 13.8 mph - N/A   Overcast
12:55 PM 33.8 °F 23.5 °F 19.4 °F 56% 30.28 in 10.0 mi NW 16.1 mph 21.9 mph N/A   Overcast
1:15 PM 35.6 °F 28.0 °F 19.4 °F 52% 30.28 in 10.0 mi NW 10.4 mph - N/A   Overcast
1:35 PM 33.8 °F 23.9 °F 19.4 °F 56% 30.28 in 10.0 mi NW 15.0 mph 23.0 mph N/A   Overcast
1:55 PM 33.8 °F 25.3 °F 19.4 °F 56% 30.29 in 10.0 mi NNW 11.5 mph - N/A   Overcast
2:15 PM 33.8 °F 25.3 °F 19.4 °F 56% 30.29 in 10.0 mi NNW 11.5 mph - N/A   Overcast
2:35 PM 33.8 °F 25.8 °F 19.4 °F 56% 30.30 in 10.0 mi NNW 10.4 mph 18.4 mph N/A   Overcast
2:55 PM 33.8 °F 26.4 °F 19.4 °F 56% 30.30 in 10.0 mi NNW 9.2 mph - N/A   Overcast
3:15 PM 33.8 °F 26.4 °F 19.4 °F 56% 30.30 in 10.0 mi NNW 9.2 mph - N/A   Overcast
3:35 PM 33.8 °F 27.0 °F 19.4 °F 56% 30.30 in 10.0 mi NNW 8.1 mph - N/A   Overcast
4:15 PM 33.8 °F 25.8 °F 19.4 °F 56% 30.31 in 10.0 mi NW 10.4 mph - N/A   Overcast
4:35 PM 33.8 °F 27.7 °F 19.4 °F 56% 30.31 in 10.0 mi NW 6.9 mph 16.1 mph N/A   Overcast
4:55 PM 33.8 °F 26.4 °F 19.4 °F 56% 30.32 in 10.0 mi NW 9.2 mph - N/A   Overcast
5:15 PM 33.8 °F 25.3 °F 19.4 °F 56% 30.32 in 10.0 mi NW 11.5 mph - N/A   Overcast
5:35 PM 33.8 °F 24.3 °F 19.4 °F 56% 30.33 in 10.0 mi NW 13.8 mph - N/A   Overcast
5:55 PM 33.8 °F 27.7 °F 19.4 °F 56% 30.34 in 10.0 mi NW 6.9 mph - N/A   Overcast
6:15 PM 33.8 °F 25.8 °F 19.4 °F 56% 30.34 in 10.0 mi NW 10.4 mph - N/A   Overcast
6:35 PM 33.8 °F 27.7 °F 19.4 °F 56% 30.34 in 10.0 mi NNW 6.9 mph - N/A   Overcast
6:55 PM 33.8 °F 27.7 °F 17.6 °F 52% 30.34 in 10.0 mi NNW 6.9 mph - N/A   Overcast
7:15 PM 33.8 °F 27.7 °F 17.6 °F 52% 30.34 in 10.0 mi NNW 6.9 mph - N/A   Overcast
7:35 PM 33.8 °F 27.0 °F 17.6 °F 52% 30.34 in 10.0 mi North 8.1 mph 16.1 mph N/A   Overcast
7:55 PM 32.0 °F 26.4 °F 17.6 °F 55% 30.35 in 10.0 mi NNW 5.8 mph - N/A   Overcast
8:35 PM 32.0 °F 24.8 °F 17.6 °F 55% 30.34 in 10.0 mi North 8.1 mph - N/A   Overcast
8:55 PM 32.0 °F 26.4 °F 17.6 °F 55% 30.34 in 10.0 mi North 5.8 mph - N/A   Overcast
9:35 PM 32.0 °F 23.6 °F 17.6 °F 55% 30.35 in 10.0 mi NNW 10.4 mph - N/A   Overcast
9:55 PM 30.2 °F 24.3 °F 17.6 °F 60% 30.35 in 10.0 mi NNW 5.8 mph - N/A   Overcast
10:15 PM 30.2 °F 21.9 °F 17.6 °F 60% 30.35 in 10.0 mi NNW 9.2 mph - N/A   Overcast
10:35 PM 30.2 °F 24.3 °F 17.6 °F 60% 30.35 in 10.0 mi North 5.8 mph - N/A   Overcast
10:55 PM 30.2 °F 24.3 °F 17.6 °F 60% 30.34 in 10.0 mi NNW 5.8 mph - N/A   Overcast
11:15 PM 30.2 °F 24.3 °F 17.6 °F 60% 30.34 in 10.0 mi North 5.8 mph - N/A   Overcast
11:35 PM 30.2 °F 24.3 °F 17.6 °F 60% 30.34 in 10.0 mi NNW 5.8 mph - N/A   Overcast
11:55 PM 30.2 °F 23.4 °F 17.6 °F 60% 30.34 in 10.0 mi NW 6.9 mph - N/A   Overcast